STARLINK-33843, 63507

Orbit data source: Space-Track

STARLINK-33843, 63507 is a payload satellite owned by SpaceX/Seattle (US) in LEO that was launched on Mon, 07 Apr 2025 UTC via an FALCON 9 launch vehicle from the Air Force Western Test Range (AFWTR). Payload-class satellites include a variety of spacecraft equipped with specific instruments for various scientific and technological missions. These include communications satellites like Starlink; space stations such as the ISS; scientific satellites like the Hubble; Earth observation satellites from companies like Planet Labs, Umbra, and HawkEye 360; GPS; miniature CubeSats for education and research; and military/defense satellites.

Loading next visibility...
Identifier
63507, 2025-071Q
Orbit
LEO
Country
Flag of USUS
Related business
Manufacturer
SpaceX/Seattle
Mission
Operational Commercial Communications
Bus & Motor
STARLINK V2MO, Unknown motor
Mass
575 kg wet, ~530 kg dry
Launch date (UTC)
2025-04-07 (7 months ago)
Launch vehicle
FALCON 9
Launch site
Air Force Western Test Range (AFWTR)
Object type
Payload
Rocket body
Debris
Shape & HBR
Box + 2 Pan, 17.7 m
Radar Cross Section
36.964 m², Large (>1 m²)

Expand to show TLE details & history
Last TLE update: 10 hours ago

TLE from 10 hours ago
0 STARLINK-33843
1 63507U 25071Q   25311.24939656  .00044646  00000-0  15095-2 0  9998
2 63507  53.1607 348.6184 0000952  98.6623 261.4486 15.30221999 34008
Epoch: 2025-11-07T05:59Z
TLE epoch observation values (Epoch: 2025-11-07T05:59:07.862Z)
Latitude
-0.00001°
Longitude
-147.86043°
Altitude
476.146 km
Speed
7.629 km/s
True Right ascension
23h 14m 28s
True Declination
0° 00' 00"
Sunlit
Object was in full shadow at epoch
Visualization orbit readout
Latitude
Unknown
Longitude
Unknown
Altitude
Unknown
Speed
Unknown
Apparent Right ascension
Unknown
Apparent Declination
Unknown
Sunlit
N/A
Visualization observer readout
Local Sidereal Time
12:35:09
Azimuth
Unknown
Elevation
Unknown
Doppler factor
Unknown
Orbital elements
Apogee altitude
476.058 km
Perigee altitude
474.753 km
Semi-major axis
6,853.543 km
Eccentricity
0.0001
Inclination
53.1607°
RAAN
348.6184°
Arg. of periapsis
98.6623°
True anomaly
261.43781°
Mean anomaly
261.4486°
Eccentric anomaly
261.44321°
Mean motion
3.82534 °/min
Orbital period
94.11 mins
BSTAR
0.0015095
Loading maneuver chart data...
Computing Atmospheric mass density...
Loading historical data...
Loading historical data...
Loading historical data...
Loading historical data...
Loading historical data...
Loading historical data...
Loading historical data...

Documentation

Showing up to 5 results
|